Grand Central Airport

Jump to: basic info | weather | frequencies | runways | comments

Related pages: nearby airports | nearby navaids | notams | map

Basic information (top)

Codes: GCJ FAGC
Location: lon -25.986300, lat 28.140100, elev 5,325 ft / 1,623 m msl
Status: medium_airport
Scheduled airline service: no
Links: Wikipedia Mobile

Weather (top)

Current conditions (rec'd 2014/07/28 14:00Z):

FAGC 281400Z AUTO 24003KT //// // ////// 19/M03 Q1031

Airport forecast for Waterkloof Air Force Base 10nm (19km) NNE (rec'd 2014/07/14 04:00Z):

TAF FAWK 140300Z 1404/1415 18007KT CAVOK 
      BECMG 1408/1410 07006KT 
      BECMG 1410/1412 35008KT TX19/1412ZTN03/1404Z

Frequencies (top)

Verify before use: may be inaccurate or out of date.

AFIS: 122.8 MHz (AFIS)

Runways (top)

17/35: 6,004 x 75 ft (1,830 x 23 m) — paved — lighted — threshold 17 displaced 175 ft (53 m) — threshold 35 displaced 175 ft (53 m)

Latest comments (top)

No comments yet for Grand Central Airport

More... (top)

See also NOTAMs and nearby airports and navaids, or visit the Grand Central Airport page at the main OurAirports website..